星链-33584 (STARLINK-33584)

导读 | 豆包AI

STARLINK-33584是美国SpaceX公司星链(Starlink)星座的卫星,于2025年1月21日发射入轨,属于星链星座批量部署的卫星之一。星链计划是全球低轨互联网星座项目,最终规划部署超4万颗卫星,旨在为全球提供高速宽带互联网接入服务,该卫星继承星链低成本、高可靠性设计,服务全球网络覆盖建设。

基本信息
目录编号:
62761
目录名称:
STARLINK-33584
国际标识:
2025-015D
轨道中心:
EARTH
卫星名称:
星链-33584
卫星全名:
星链-33584 (STARLINK-33584)
卫星状态:
在轨 (已飞行463 天)
发射日期:
2025-01-21 UTC
国别 :
美国 (US)
星等 :
--
轨道信息
数据来源 国际轨道数据 AOE轨道数据
星历时间 2026-04-29T12:29:32+0800
17小时前
查看轨道信息
2026-04-29T17:00:00+0800
12小时前
查看轨道信息
半长轴 6853.346km 6853.386km
偏心率 0.0001336 0.0001157
轨道倾角 53.159° 53.157°
近地点辐角 91.052° 77.162°
升交点赤经 87.821° 86.952°
平近点角 269.063° 238.162°
近地点 474.293km 474.456km
远地点 476.125km 476.042km
周期 94.105分钟 94.106分钟
每日圈数 15.302021 15.301889
详细信息
固有亮度:
5
最大亮度:
2.5
卫星平台:
Starlink V1.0
覆盖范围:
全球
运营商:
太空探索技术公司
运营商所在国:
美国
制造商(研发单位):
太空探索技术公司
制造商所在国:
美国
使用方式:
暂无
卫星简介
Starlink 计划是 SpaceX 推出的全球卫星互联网项目,通过发射低轨道卫星,为全球尤其是偏远地区提供高速、低延迟的互联网服务。自 2019 年起,Starlink 已部署数千颗卫星,旨在缩小全球数字鸿沟,推动互联网普及。该项目还为军事、航空等行业提供通信支持,带来广泛经济效益。
2D轨道图
3D轨道图
轨道高度分析图
轨道倾角分析图
轨道综合分析图
查看轨道综合分析图